Effective Sunday, March 17, 2024, the National Weather Service National Data Buoy Center will discontinue its Dial-A-Buoy Interactive Voice Response system. For more information, see Service Change Notice 24-06 (PDF).

Station ANMN6 - Field Station, Hudson River Reserve, NY Image indicating link to RSS feed of recent meteorological observations for station ANMN6


Conditions at ANMN6 as of
(4:30 am EST)
0930 GMT on 02/25/2024:
     

Click on the graph icon in the table below to see a time series plot of the last five days of that observation.

5-day plot - Wind Speed Wind Speed (WSPD): 0.0 kts
5-day plot - Atmospheric Pressure Atmospheric Pressure (PRES):30.09 in
5-day plot - Air Temperature Air Temperature (ATMP): 16.5 °F
5-day plot - Dew Point Dew Point (DEWP): 4.3 °F
5-day plot -  Wind Speed, Wind Gust and Atmospheric Pressure Combined plot of Wind Speed, Gust, and Air Pressure
Previous observations
TIME
(EST)
5-day plot - Wind Direction
WDIR
 
5-day plot - Wind Speed
WSPD
kts
5-day plot - Wind Gust
GST
kts
5-day plot - Wave Height
WVHT
ft
5-day plot - Dominant Wave Period
DPD
sec
5-day plot - Average Wave Period
APD
sec
5-day plot - Mean Wave Direction
MWD
 
5-day plot - Atmospheric Pressure
PRES
in
5-day plot - Pressure Tendency
PTDY
in
5-day plot - Air Temperature
ATMP
°F
5-day plot - Water Temperature
WTMP
°F
5-day plot - Dew Point
DEWP
°F
5-day plot - Salinity
SAL
psu
5-day plot - Visibility
VIS
nmi
5-day plot - Tide (above MLLW)
TIDE
ft
2024-02-25 04:15 am- 0.0-----30.09- 16.9- 4.1---
2024-02-25 04:00 am- 0.0-----30.09+0.03 17.1- 4.3---
2024-02-25 03:45 am- 0.0-----30.09- 17.2- 3.4---
2024-02-25 03:30 am- 0.0-----30.09- 17.6- 3.7---
2024-02-25 03:15 am- 0.0-----30.09- 17.8- 3.9---
2024-02-25 03:00 am- 0.0-----30.09+0.06 18.1- 4.1---
2024-02-25 02:45 am- 0.0-----30.09- 18.1- 4.1---
2024-02-25 02:30 am- 0.0-----30.09- 18.5- 5.0---
2024-02-25 02:15 am- 0.0-----30.09- 18.5- 5.0---
2024-02-25 02:00 am- 0.0-----30.06+0.03 18.7- 4.6---
2024-02-25 01:45 am- 0.0-----30.06- 19.0- 4.6---
2024-02-25 01:30 am- 0.0-----30.06- 19.2- 4.8---
2024-02-25 01:15 am- 0.0-----30.06- 19.6- 4.6---
2024-02-25 01:00 am- 0.0-----30.06+0.06 19.8- 4.8---
2024-02-25 12:45 am- 0.0-----30.03- 19.9- 5.0---
2024-02-25 12:30 am- 0.0-----30.03- 20.3- 5.4---
2024-02-25 12:15 am- 0.0-----30.03- 20.5- 4.6---
2024-02-25 12:00 am- 0.0-----30.03+0.06 20.8- 4.6---
2024-02-24 11:45 pm- 0.0-----30.03- 21.2- 5.0---
2024-02-24 11:30 pm- 0.0-----30.03- 21.6- 5.2---
2024-02-24 11:15 pm- 0.0-----30.03- 21.6- 6.6---
2024-02-24 11:00 pm- 0.0-----30.03+0.09 21.9- 6.1---
2024-02-24 10:45 pm- 0.0-----30.00- 22.3- 7.7---
2024-02-24 10:30 pm- 0.0-----30.00- 22.8- 5.5---
2024-02-24 10:15 pm- 0.0-----30.00- 23.2- 6.3---
2024-02-24 10:00 pm- 0.0-----30.00+0.09 23.9- 5.5---
2024-02-24 09:45 pm- 0.0-----30.00- 24.8- 5.4---
2024-02-24 09:30 pm- 0.0-----29.97- 25.0- 6.1---
2024-02-24 09:15 pm- 0.0-----29.97- 25.2- 7.7---
2024-02-24 09:00 pm- 0.0-----29.97+0.12 25.9- 7.9---
2024-02-24 08:45 pm- 0.0-----29.97- 26.1- 8.6---
2024-02-24 08:30 pm W 1.0-----29.94- 26.8- 7.7---
2024-02-24 08:15 pm W 1.9-----29.94- 27.3- 7.7---
2024-02-24 08:00 pm W 1.9-----29.94+0.12 27.7- 6.4---
2024-02-24 07:45 pm W 1.9-----29.94- 28.0- 7.9---
2024-02-24 07:30 pm W 1.0-----29.94- 27.9- 6.6---
2024-02-24 07:15 pm- 0.0-----29.91- 27.9- 3.6---
2024-02-24 07:00 pm- 0.0-----29.91+0.15 27.9- 4.3---
2024-02-24 06:45 pm- 0.0-----29.88- 28.4- 3.6---
2024-02-24 06:30 pm- 0.0-----29.88- 28.8- 3.7---
2024-02-24 06:15 pm- 0.0-----29.88- 29.3- 4.3---
2024-02-24 06:00 pm- 0.0-----29.85+0.09 30.0- 5.0---
2024-02-24 05:45 pm S 1.0-----29.85- 30.7- 2.8---
2024-02-24 05:30 pm E 1.0-----29.83- 31.8- 2.3---
2024-02-24 05:15 pmSSE 1.0-----29.83- 32.7- 3.0---
2024-02-24 05:00 pmWSW 1.9-----29.83+0.09 33.3- 4.3---
2024-02-24 04:45 pm E 1.9-----29.80- 34.3- 3.7---
2024-02-24 04:30 pmWSW 1.9-----29.80- 34.3- 5.4---
2024-02-24 04:15 pm W 1.9-----29.80- 34.9- 3.4---
2024-02-24 04:00 pm S 1.9-----29.77+0.03 35.4- 3.0---
2024-02-24 03:45 pm E 1.9-----29.77- 36.7- 3.2---
2024-02-24 03:30 pm E 1.9-----29.77- 36.7- 4.1---
2024-02-24 03:15 pm N 1.9-----29.77- 36.3- 4.6---
2024-02-24 03:00 pm NE 1.9-----29.77+0.03 37.6- 6.6---
2024-02-24 02:45 pm SW 1.9-----29.74- 36.7- 5.7---
2024-02-24 02:30 pmENE 1.9-----29.74- 36.5- 5.5---
2024-02-24 02:15 pmESE 1.0-----29.74- 36.7- 7.3---
2024-02-24 02:00 pm E 1.0-----29.74+0.03 36.7- 8.8---
2024-02-24 01:45 pm NW 1.0-----29.74- 36.0- 10.2---
2024-02-24 01:30 pm SW 1.9-----29.74- 34.9- 10.6---
2024-02-24 01:15 pm W 1.0-----29.74- 35.2- 12.7---
2024-02-24 01:00 pm NE 1.9-----29.74+0.03 35.4- 13.5---
2024-02-24 12:45 pmNNE 1.9-----29.74- 35.6- 14.2---
2024-02-24 12:30 pm E 1.9-----29.74- 34.5- 14.9---
2024-02-24 12:15 pm W 1.0-----29.74- 34.3- 15.6---
2024-02-24 12:00 pm E 1.9-----29.74+0.06 34.0- 13.3---
2024-02-24 11:45 amENE 1.9-----29.74- 34.2- 13.5---
2024-02-24 11:30 amENE 1.0-----29.71- 34.0- 13.8---
2024-02-24 11:15 am E 1.9-----29.71- 33.1- 12.4---
2024-02-24 11:00 amENE 1.9-----29.71+0.09 32.7- 12.2---
2024-02-24 10:45 amENE 1.9-----29.71- 32.9- 11.7---
2024-02-24 10:30 am E 1.9-----29.71- 32.5- 12.6---
2024-02-24 10:15 am N 1.9-----29.71- 31.6- 13.6---
2024-02-24 10:00 amWSW 1.0-----29.71+0.12 31.3- 15.3---
2024-02-24 09:45 am E 1.9-----29.68- 31.5- 16.3---
2024-02-24 09:30 am E 1.9-----29.68- 32.0- 17.6---
2024-02-24 09:15 am E 1.0-----29.68- 32.4- 18.9---
2024-02-24 09:00 am- 0.0-----29.68+0.12 32.9- 20.5---
2024-02-24 08:45 am- 0.0-----29.65- 34.0- 18.7---
2024-02-24 08:30 amESE 1.0-----29.65- 34.9- 17.6---
2024-02-24 08:15 am- 0.0-----29.65- 34.7- 19.4---
2024-02-24 08:00 am- 0.0-----29.62+0.09 34.2- 21.4---
2024-02-24 07:45 am- 0.0-----29.62- 34.2- 23.0---
2024-02-24 07:30 am- 0.0-----29.62- 34.5- 23.7---
2024-02-24 07:15 am- 0.0-----29.59- 34.9- 23.5---
2024-02-24 07:00 am- 0.0-----29.59+0.06 34.7- 24.3---
2024-02-24 06:45 am- 0.0-----29.59- 35.2- 25.3---
2024-02-24 06:30 am E 1.0-----29.56- 35.8- 25.9---
2024-02-24 06:15 am- 0.0-----29.56- 36.7- 26.1---
2024-02-24 06:00 am SW 1.0-----29.56+0.06 36.9- 27.0---
2024-02-24 05:45 am- 0.0-----29.56- 36.7- 27.5---
2024-02-24 05:30 am- 0.0-----29.56- 36.1- 28.4---
2024-02-24 05:15 am- 0.0-----29.53- 35.2- 30.0---
2024-02-24 05:00 amESE 1.0-----29.53+0.03 34.0- 31.1---